Regional Weather Roundup
Issued by NWS Newport/Morehead, NC

Home | Current Version | Previous Version | Text Only | Print | Product List | Glossary On
Versions: 1 2 3 4 5 6 7 8 9 10 11 12 13 14 15 16 17 18 19 20 21 22 23 24 25 26 27 28 29 30 31 32 33 34 35 36 37 38 39 40 41 42 43 44 45 46 47 48 49 50
000
ASUS42 KMHX 061824
RWRMHX
WEATHER ROUNDUP FOR EASTERN NORTH CAROLINA
NATIONAL WEATHER SERVICE NEWPORT/MOREHEAD CITY NC
100 PM EST TUE DEC 06 2016

NOTE: "FAIR" INDICATES FEW OR NO CLOUDS BELOW 12,000 FEET
WITH NO SIGNIFICANT WEATHER AND/OR OBSTRUCTIONS TO VISIBILITY

NCZ015>017-031-032-045>047-102-103-061900-
NORTH COAST

CITY           SKY/WX    TMP DP  RH WIND       PRES   REMARKS
EDENTON        LGT RAIN  58  56  92 E13G20    29.77F
ELIZABETH CITY RAIN      57  56  96 E15       29.77F FOG
KITTY HAWK     LGT RAIN  57  57 100 E12       29.78F
MANTEO         LGT RAIN  57  57 100 E13       29.79F

$$

NCZ045>047-081-094-103-104-061900-
CENTRAL COAST

CITY           SKY/WX    TMP DP  RH WIND       PRES   REMARKS
FRISCO         LGT RAIN  63  62  97 SE16      29.73F VSB 1

$$

NCZ095-097-098-100-101-061900-
SOUTHERN COAST

CITY           SKY/WX    TMP DP  RH WIND       PRES   REMARKS
BEAUFORT       CLOUDY    66  65  96 E14G22    29.68F
CEDAR ISLAND   NOT AVBL
JACKSONVILLE   CLOUDY    60  60 100 E8        29.67F
PINEY ISLAND   CLOUDY   N/A N/A N/A E16       29.70F
WILMINGTON     CLOUDY    65  65 100 NE10      29.63F


$$

NCZ011>013-027>030-043-044-078>080-089-090>093-098-061900-
COASTAL PLAIN

CITY           SKY/WX    TMP DP  RH WIND       PRES   REMARKS
AHOSKIE        DRIZZLE   50  49  97 NE6       29.78F
CLINTON        CLOUDY    52  52 100 NE5       29.69F
ELIZABETHTOWN  CLOUDY    54  54 100 CALM      29.69F
GOLDSBORO      CLOUDY    54  54 100 NE7       29.68F FOG
GREENVILLE     LGT RAIN  54  54 100 E7        29.75F
HAVELOCK       LGT RAIN  64  62  93 E5        29.71F FOG
KENANSVILLE    CLOUDY    52  52 100 E3        29.69F FOG
KINSTON        RAIN      55  54  94 N6        29.71F
NEW BERN       HVY RAIN  62  61  96 SE8       29.70F FOG
RICHLANDS      CLOUDY    60  59  96 SE5       29.68F
ROCKY MOUNT    LGT RAIN  49  49 100 NE9       29.73F VSB 1
WASHINGTON     LGT RAIN  56  55  97 NE8       29.73F
WHITEVILLE     CLOUDY    56  55  95 NE6       29.67F

$$

AMZ130-135-150-152-154-156-158-170-250-252-270-ANZ085-086-088-633-658-670-061900-
MARINE OBSERVATIONS

STATION/POSITION TIME  TEMP    WIND        PRES    WAVE   SWELL
                       AIR SEA DIR/SP/G            HT/PER HT/PER
                 (UTC) (F)     (DEG/KT/KT) (MB)    (FT/S) (FT/S)
CHESAPEAKE LIGHT NOT AVBL
64 E VA BEACH    1650   59 60   90/ 19/ 25 1011.8    7/ 8   3/ 8
DUCK             1718   56 54   80/ 16/ 17 1009.3
2 E DUCK         NOT AVBL
OREGON INLET     1712   59 57   90/  9/ 14 1009.4
13E OREGON INLT  NOT AVBL
HATTERAS CG      1718   64 60  110/ 14/ 18 1008.0
DIAMOND BUOY     1650   69 75  120/ 25/ 29 1008.5    7/ 8   3/11
CAPE LOOKOUT     1700   64      80/ 25/ 26 1006.7
BEAUFORT LAB     1718   65 56  100/ 13/ 17 1005.4
30 SE NEW RVR IN 1708   62 70   80/ 14/ 19 1006.0
30 SE NEW RVR IN NOT AVBL
27 SE WRIGHTSVLE 1708   69 70  240/ 14/ 21 1006.1
5 SE WRIGHTSVLE  1708   61 62   10/  6/ 12 1006.3
225 S CAPE HAT   1650   73 74  170/ 19/ 23 1011.9    6/ 6   2/12
41 SE CHARLESTON 1650   73 74  260/ 17/ 21 1007.1    8/ 7   2/12

$$




USA.gov is the U.S. government's official web portal to all federal, state and local government web resources and services.